Time,TemperatureF,DewpointF,PressureIn,WindDirection,WindDirectionDegrees,WindSpeedMPH,WindSpeedGustMPH,Humidity,HourlyPrecipIn,Conditions,Clouds,dailyrainin,SoftwareType,DateUTC
2013-03-07 00:01:00,31.8,29.5,30.16,NW,310,2.0,3.0,91,0.00,,,0.00,Wunderground v.1.15,2013-03-07 05:01:00,
2013-03-07 00:03:00,31.8,29.5,30.16,NW,321,2.0,3.0,91,0.00,,,0.00,Wunderground v.1.15,2013-03-07 05:03:00,
2013-03-07 00:05:00,31.8,29.5,30.16,NW,315,2.0,3.0,91,0.00,,,0.00,Wunderground v.1.15,2013-03-07 05:05:00,
2013-03-07 00:10:00,31.8,29.5,30.16,NW,311,2.0,4.0,91,0.00,,,0.00,Wunderground v.1.15,2013-03-07 05:10:00,
2013-03-07 00:16:00,31.9,29.3,30.16,NNW,331,3.0,4.0,90,0.00,,,0.00,Wunderground v.1.15,2013-03-07 05:16:00,
2013-03-07 00:21:00,31.9,29.3,30.16,NNW,346,3.0,3.0,90,0.00,,,0.00,Wunderground v.1.15,2013-03-07 05:21:00,
2013-03-07 00:26:00,31.9,29.3,30.16,NW,312,2.0,4.0,90,0.00,,,0.00,Wunderground v.1.15,2013-03-07 05:26:00,
2013-03-07 00:32:00,31.9,29.3,30.16,WNW,301,2.0,4.0,90,0.00,,,0.00,Wunderground v.1.15,2013-03-07 05:32:00,
2013-03-07 00:37:00,31.8,29.5,30.16,NNW,338,2.0,4.0,91,0.00,,,0.00,Wunderground v.1.15,2013-03-07 05:37:00,
2013-03-07 00:42:00,31.8,29.5,30.16,WNW,288,2.0,2.0,91,0.00,,,0.00,Wunderground v.1.15,2013-03-07 05:42:00,
2013-03-07 00:48:00,31.7,29.4,30.16,NNW,331,1.0,2.0,91,0.00,,,0.00,Wunderground v.1.15,2013-03-07 05:48:00,
2013-03-07 00:54:00,31.7,29.4,30.16,WNW,301,1.0,4.0,91,0.00,,,0.00,Wunderground v.1.15,2013-03-07 05:54:00,
2013-03-07 01:00:00,31.7,29.4,30.16,WNW,290,1.0,2.0,91,0.00,,,0.00,Wunderground v.1.15,2013-03-07 06:00:00,
2013-03-07 01:05:00,31.6,29.3,30.16,WNW,300,2.0,3.0,91,0.00,,,0.00,Wunderground v.1.15,2013-03-07 06:05:00,
2013-03-07 01:11:00,31.7,29.4,30.16,NW,323,2.0,2.0,91,0.00,,,0.00,Wunderground v.1.15,2013-03-07 06:11:00,
2013-03-07 01:16:00,31.7,29.4,30.16,NW,316,2.0,2.0,91,0.00,,,0.00,Wunderground v.1.15,2013-03-07 06:16:00,
2013-03-07 01:21:00,31.7,29.4,30.16,WNW,296,1.0,2.0,91,0.00,,,0.00,Wunderground v.1.15,2013-03-07 06:21:00,
2013-03-07 01:28:00,31.7,29.4,30.16,NW,325,1.0,2.0,91,0.00,,,0.00,Wunderground v.1.15,2013-03-07 06:28:00,
2013-03-07 01:33:00,31.7,29.4,30.17,WNW,302,1.0,1.0,91,0.00,,,0.00,Wunderground v.1.15,2013-03-07 06:33:00,
2013-03-07 01:40:00,31.7,29.4,30.16,North,349,1.0,3.0,91,0.00,,,0.00,Wunderground v.1.15,2013-03-07 06:40:00,
2013-03-07 01:45:00,31.7,29.4,30.16,NW,318,1.0,2.0,91,0.00,,,0.00,Wunderground v.1.15,2013-03-07 06:45:00,
2013-03-07 01:50:00,31.7,29.4,30.17,NW,314,1.0,1.0,91,0.00,,,0.00,Wunderground v.1.15,2013-03-07 06:50:00,
2013-03-07 01:55:00,31.7,29.4,30.17,NW,318,1.0,2.0,91,0.00,,,0.00,Wunderground v.1.15,2013-03-07 06:55:00,
2013-03-07 02:00:00,31.7,29.6,30.17,NW,309,2.0,3.0,92,0.00,,,0.00,Wunderground v.1.15,2013-03-07 07:00:00,
2013-03-07 02:06:00,31.7,29.6,30.17,WNW,295,2.0,3.0,92,0.00,,,0.00,Wunderground v.1.15,2013-03-07 07:06:00,
2013-03-07 02:14:00,31.8,29.5,30.17,NW,321,1.0,2.0,91,0.00,,,0.00,Wunderground v.1.15,2013-03-07 07:14:00,
2013-03-07 02:20:00,31.7,29.6,30.17,WNW,302,1.0,3.0,92,0.00,,,0.00,Wunderground v.1.15,2013-03-07 07:20:00,
2013-03-07 02:25:00,31.7,29.6,30.17,NW,311,2.0,3.0,92,0.00,,,0.00,Wunderground v.1.15,2013-03-07 07:25:00,
2013-03-07 02:30:00,31.7,29.6,30.17,NW,311,2.0,2.0,92,0.00,,,0.00,Wunderground v.1.15,2013-03-07 07:30:00,
2013-03-07 02:36:00,31.7,29.6,30.17,NW,319,2.0,2.0,92,0.00,,,0.00,Wunderground v.1.15,2013-03-07 07:36:00,
2013-03-07 02:41:00,31.8,29.7,30.17,NW,320,2.0,2.0,92,0.00,,,0.00,Wunderground v.1.15,2013-03-07 07:41:00,
2013-03-07 02:47:00,31.7,29.6,30.17,NW,311,1.0,2.0,92,0.00,,,0.00,Wunderground v.1.15,2013-03-07 07:47:00,
2013-03-07 02:52:00,31.7,29.6,30.17,NW,310,0.0,0.0,92,0.00,,,0.00,Wunderground v.1.15,2013-03-07 07:52:00,
2013-03-07 02:58:00,31.6,29.5,30.17,NW,311,0.0,0.0,92,0.00,,,0.00,Wunderground v.1.15,2013-03-07 07:58:00,
2013-03-07 03:03:00,31.6,29.5,30.17,NW,310,0.0,0.0,92,0.00,,,0.00,Wunderground v.1.15,2013-03-07 08:03:00,
2013-03-07 03:08:00,31.6,29.5,30.17,NW,309,0.0,0.0,92,0.00,,,0.00,Wunderground v.1.15,2013-03-07 08:08:00,
2013-03-07 03:14:00,31.6,29.5,30.17,NW,309,0.0,0.0,92,0.00,,,0.00,Wunderground v.1.15,2013-03-07 08:14:00,
2013-03-07 03:20:00,31.6,29.5,30.17,NW,307,0.0,0.0,92,0.00,,,0.00,Wunderground v.1.15,2013-03-07 08:20:00,
2013-03-07 03:25:00,31.6,29.5,30.17,NW,307,0.0,0.0,92,0.00,,,0.00,Wunderground v.1.15,2013-03-07 08:25:00,
2013-03-07 03:31:00,31.5,29.4,30.17,NW,307,0.0,0.0,92,0.00,,,0.00,Wunderground v.1.15,2013-03-07 08:31:00,
2013-03-07 03:36:00,31.5,29.4,30.17,NW,310,0.0,2.0,92,0.00,,,0.00,Wunderground v.1.15,2013-03-07 08:36:00,
2013-03-07 03:42:00,31.5,29.4,30.17,WNW,302,0.0,2.0,92,0.00,,,0.00,Wunderground v.1.15,2013-03-07 08:42:00,
2013-03-07 03:47:00,31.5,29.4,30.17,NW,309,1.0,2.0,92,0.00,,,0.00,Wunderground v.1.15,2013-03-07 08:47:00,
2013-03-07 03:53:00,31.6,29.5,30.17,WNW,297,1.0,1.0,92,0.00,,,0.00,Wunderground v.1.15,2013-03-07 08:53:00,
2013-03-07 04:00:00,31.6,29.5,30.17,NW,317,1.0,1.0,92,0.00,,,0.00,Wunderground v.1.15,2013-03-07 09:00:00,
2013-03-07 04:07:00,31.7,29.6,30.17,NW,326,1.0,2.0,92,0.00,,,0.00,Wunderground v.1.15,2013-03-07 09:07:00,
2013-03-07 04:12:00,31.7,29.4,30.17,NW,309,2.0,2.0,91,0.00,,,0.00,Wunderground v.1.15,2013-03-07 09:12:00,
2013-03-07 04:17:00,31.7,29.4,30.17,NW,307,1.0,2.0,91,0.00,,,0.00,Wunderground v.1.15,2013-03-07 09:17:00,
2013-03-07 04:24:00,31.7,29.4,30.18,NW,311,1.0,2.0,91,0.00,,,0.00,Wunderground v.1.15,2013-03-07 09:24:00,
2013-03-07 04:29:00,31.6,29.3,30.18,NW,311,1.0,2.0,91,0.00,,,0.00,Wunderground v.1.15,2013-03-07 09:29:00,
2013-03-07 04:34:00,31.7,29.4,30.18,NW,323,1.0,3.0,91,0.00,,,0.00,Wunderground v.1.15,2013-03-07 09:34:00,
2013-03-07 04:40:00,31.7,29.4,30.18,NW,307,1.0,3.0,91,0.00,,,0.00,Wunderground v.1.15,2013-03-07 09:40:00,
2013-03-07 04:47:00,31.7,29.4,30.18,NNW,348,1.0,2.0,91,0.00,,,0.00,Wunderground v.1.15,2013-03-07 09:47:00,
2013-03-07 04:52:00,31.7,29.4,30.18,WNW,302,1.0,3.0,91,0.00,,,0.00,Wunderground v.1.15,2013-03-07 09:52:00,
2013-03-07 04:58:00,31.7,29.4,30.18,WNW,297,1.0,4.0,91,0.00,,,0.00,Wunderground v.1.15,2013-03-07 09:58:00,
2013-03-07 05:05:00,31.7,29.4,30.18,WNW,297,1.0,2.0,91,0.00,,,0.00,Wunderground v.1.15,2013-03-07 10:05:00,
2013-03-07 05:10:00,31.6,29.3,30.19,NNW,346,1.0,2.0,91,0.00,,,0.00,Wunderground v.1.15,2013-03-07 10:10:00,
2013-03-07 05:15:00,31.6,29.3,30.19,NNE,23,0.0,1.0,91,0.00,,,0.00,Wunderground v.1.15,2013-03-07 10:15:00,
2013-03-07 05:21:00,31.5,29.2,30.19,NW,310,0.0,0.0,91,0.00,,,0.00,Wunderground v.1.15,2013-03-07 10:21:00,
2013-03-07 05:27:00,31.5,29.2,30.20,WNW,291,0.0,0.0,91,0.00,,,0.00,Wunderground v.1.15,2013-03-07 10:27:00,
2013-03-07 05:32:00,31.5,29.4,30.20,WNW,293,0.0,0.0,92,0.00,,,0.00,Wunderground v.1.15,2013-03-07 10:32:00,
2013-03-07 05:38:00,31.6,29.5,30.20,WNW,292,0.0,0.0,92,0.00,,,0.00,Wunderground v.1.15,2013-03-07 10:38:00,
2013-03-07 05:44:00,31.6,29.5,30.20,WNW,298,0.0,1.0,92,0.00,,,0.00,Wunderground v.1.15,2013-03-07 10:44:00,
2013-03-07 05:50:00,31.7,29.6,30.20,NW,309,1.0,2.0,92,0.00,,,0.00,Wunderground v.1.15,2013-03-07 10:50:00,
2013-03-07 05:55:00,31.7,29.4,30.20,WNW,300,2.0,3.0,91,0.00,,,0.00,Wunderground v.1.15,2013-03-07 10:55:00,
2013-03-07 06:00:00,31.8,29.5,30.20,NW,317,2.0,3.0,91,0.00,,,0.00,Wunderground v.1.15,2013-03-07 11:00:00,
2013-03-07 06:05:00,31.8,29.5,30.20,NW,313,2.0,3.0,91,0.00,,,0.00,Wunderground v.1.15,2013-03-07 11:05:00,
2013-03-07 06:10:00,31.8,29.5,30.20,NW,312,1.0,1.0,91,0.00,,,0.00,Wunderground v.1.15,2013-03-07 11:10:00,
2013-03-07 06:16:00,31.8,29.5,30.20,WNW,302,1.0,2.0,91,0.00,,,0.00,Wunderground v.1.15,2013-03-07 11:16:00,
2013-03-07 06:22:00,31.8,29.5,30.21,NW,315,1.0,2.0,91,0.00,,,0.00,Wunderground v.1.15,2013-03-07 11:22:00,
2013-03-07 06:28:00,31.7,29.4,30.21,WNW,300,2.0,4.0,91,0.00,,,0.00,Wunderground v.1.15,2013-03-07 11:28:00,
2013-03-07 06:34:00,31.7,29.6,30.21,WNW,294,2.0,3.0,92,0.00,,,0.00,Wunderground v.1.15,2013-03-07 11:34:00,
2013-03-07 06:40:00,31.7,29.6,30.21,WNW,293,1.0,3.0,92,0.00,,,0.00,Wunderground v.1.15,2013-03-07 11:40:00,
2013-03-07 06:45:00,31.7,29.6,30.21,WNW,293,2.0,5.0,92,0.00,,,0.00,Wunderground v.1.15,2013-03-07 11:45:00,
2013-03-07 06:50:00,31.7,29.6,30.22,WNW,302,2.0,2.0,92,0.00,,,0.00,Wunderground v.1.15,2013-03-07 11:50:00,
2013-03-07 06:56:00,31.7,29.6,30.22,West,281,2.0,4.0,92,0.00,,,0.00,Wunderground v.1.15,2013-03-07 11:56:00,
2013-03-07 07:01:00,31.8,29.7,30.22,WNW,287,2.0,2.0,92,0.00,,,0.00,Wunderground v.1.15,2013-03-07 12:01:00,
2013-03-07 07:07:00,31.8,29.7,30.22,WNW,286,2.0,3.0,92,0.00,,,0.00,Wunderground v.1.15,2013-03-07 12:07:00,
2013-03-07 07:13:00,31.8,29.7,30.23,West,270,2.0,2.0,92,0.00,,,0.00,Wunderground v.1.15,2013-03-07 12:13:00,
2013-03-07 07:20:00,31.8,29.7,30.23,West,280,2.0,4.0,92,0.00,,,0.00,Wunderground v.1.15,2013-03-07 12:20:00,
2013-03-07 07:25:00,31.9,29.8,30.23,WNW,291,2.0,2.0,92,0.00,,,0.00,Wunderground v.1.15,2013-03-07 12:25:00,
2013-03-07 07:30:00,31.9,29.8,30.23,West,277,2.0,5.0,92,0.00,,,0.00,Wunderground v.1.15,2013-03-07 12:30:00,
2013-03-07 07:36:00,32.0,29.9,30.23,WNW,288,2.0,5.0,92,0.00,,,0.00,Wunderground v.1.15,2013-03-07 12:36:00,
2013-03-07 07:42:00,32.0,29.9,30.23,WNW,293,2.0,4.0,92,0.00,,,0.00,Wunderground v.1.15,2013-03-07 12:42:00,
2013-03-07 07:47:00,32.1,30.0,30.23,WNW,300,2.0,4.0,92,0.00,,,0.00,Wunderground v.1.15,2013-03-07 12:47:00,
2013-03-07 07:52:00,32.2,30.1,30.24,West,276,2.0,2.0,92,0.00,,,0.00,Wunderground v.1.15,2013-03-07 12:52:00,
2013-03-07 08:00:00,32.3,30.2,30.24,NW,307,3.0,3.0,92,0.00,,,0.00,Wunderground v.1.15,2013-03-07 13:00:00,
2013-03-07 08:06:00,32.5,30.4,30.24,WNW,284,3.0,4.0,92,0.00,,,0.00,Wunderground v.1.15,2013-03-07 13:06:00,
2013-03-07 08:12:00,32.6,30.5,30.24,WNW,292,3.0,3.0,92,0.00,,,0.00,Wunderground v.1.15,2013-03-07 13:12:00,
2013-03-07 08:17:00,32.7,30.6,30.24,WNW,293,2.0,5.0,92,0.00,,,0.00,Wunderground v.1.15,2013-03-07 13:17:00,
2013-03-07 08:24:00,32.7,30.6,30.24,WNW,303,3.0,4.0,92,0.00,,,0.00,Wunderground v.1.15,2013-03-07 13:24:00,
2013-03-07 08:30:00,32.8,30.7,30.24,NNW,328,3.0,3.0,92,0.00,,,0.00,Wunderground v.1.15,2013-03-07 13:30:00,
2013-03-07 08:35:00,33.0,30.7,30.24,NW,307,2.0,4.0,91,0.00,,,0.00,Wunderground v.1.15,2013-03-07 13:35:00,
2013-03-07 08:41:00,33.0,30.7,30.25,WNW,297,3.0,8.0,91,0.00,,,0.00,Wunderground v.1.15,2013-03-07 13:41:00,
2013-03-07 08:46:00,32.8,30.5,30.25,NW,311,5.0,8.0,91,0.00,,,0.00,Wunderground v.1.15,2013-03-07 13:46:00,
2013-03-07 08:54:00,32.8,30.5,30.25,WNW,289,5.0,7.0,91,0.00,,,0.00,Wunderground v.1.15,2013-03-07 13:54:00,
2013-03-07 09:00:00,32.8,30.2,30.25,WNW,301,4.0,9.0,90,0.00,,,0.00,Wunderground v.1.15,2013-03-07 14:00:00,
2013-03-07 09:08:00,32.8,30.2,30.25,NW,314,5.0,9.0,90,0.00,,,0.00,Wunderground v.1.15,2013-03-07 14:08:00,
2013-03-07 09:13:00,32.9,30.3,30.25,WNW,297,5.0,8.0,90,0.00,,,0.00,Wunderground v.1.15,2013-03-07 14:13:00,
2013-03-07 09:20:00,32.9,30.0,30.25,WNW,291,5.0,8.0,89,0.00,,,0.00,Wunderground v.1.15,2013-03-07 14:20:00,
2013-03-07 09:25:00,33.1,30.2,30.26,NW,321,4.0,8.0,89,0.00,,,0.00,Wunderground v.1.15,2013-03-07 14:25:00,
2013-03-07 09:30:00,33.0,30.1,30.26,NNW,335,6.0,6.0,89,0.00,,,0.00,Wunderground v.1.15,2013-03-07 14:30:00,
2013-03-07 09:36:00,33.2,30.0,30.26,WNW,288,6.0,8.0,88,0.00,,,0.00,Wunderground v.1.15,2013-03-07 14:36:00,
2013-03-07 09:41:00,33.6,30.7,30.27,NNW,329,5.0,5.0,89,0.00,,,0.00,Wunderground v.1.15,2013-03-07 14:41:00,
2013-03-07 09:48:00,34.0,30.5,30.26,NW,311,5.0,7.0,87,0.00,,,0.00,Wunderground v.1.15,2013-03-07 14:48:00,
2013-03-07 09:54:00,34.4,30.9,30.27,NW,308,5.0,6.0,87,0.00,,,0.00,Wunderground v.1.15,2013-03-07 14:54:00,
2013-03-07 10:00:00,34.6,30.8,30.27,NW,310,5.0,5.0,86,0.00,,,0.00,Wunderground v.1.15,2013-03-07 15:00:00,
2013-03-07 10:06:00,34.9,31.1,30.27,WNW,297,4.0,5.0,86,0.00,,,0.00,Wunderground v.1.15,2013-03-07 15:06:00,
2013-03-07 10:13:00,34.6,30.3,30.27,West,274,5.0,7.0,84,0.00,,,0.00,Wunderground v.1.15,2013-03-07 15:13:00,
2013-03-07 10:19:00,34.9,30.8,30.27,NNW,328,5.0,7.0,85,0.00,,,0.00,Wunderground v.1.15,2013-03-07 15:19:00,
2013-03-07 10:27:00,35.0,30.4,30.27,NNW,327,4.0,6.0,83,0.00,,,0.00,Wunderground v.1.15,2013-03-07 15:27:00,
2013-03-07 10:32:00,35.2,30.6,30.27,WNW,297,5.0,8.0,83,0.00,,,0.00,Wunderground v.1.15,2013-03-07 15:32:00,
2013-03-07 10:37:00,35.0,30.4,30.27,NW,311,5.0,8.0,83,0.00,,,0.00,Wunderground v.1.15,2013-03-07 15:37:00,
2013-03-07 10:43:00,35.1,30.5,30.27,WNW,300,6.0,8.0,83,0.00,,,0.00,Wunderground v.1.15,2013-03-07 15:43:00,
2013-03-07 10:48:00,35.2,30.6,30.27,North,1,6.0,9.0,83,0.00,,,0.00,Wunderground v.1.15,2013-03-07 15:48:00,
2013-03-07 10:54:00,35.2,30.6,30.27,WNW,302,6.0,8.0,83,0.00,,,0.00,Wunderground v.1.15,2013-03-07 15:54:00,
2013-03-07 11:01:00,35.0,30.1,30.28,NW,316,6.0,6.0,82,0.00,,,0.00,Wunderground v.1.15,2013-03-07 16:01:00,
2013-03-07 11:09:00,34.9,30.3,30.28,NW,315,6.0,7.0,83,0.00,,,0.00,Wunderground v.1.15,2013-03-07 16:09:00,
2013-03-07 11:15:00,34.9,30.0,30.28,NW,312,6.0,8.0,82,0.00,,,0.00,Wunderground v.1.15,2013-03-07 16:15:00,
2013-03-07 11:20:00,34.8,30.2,30.28,NNW,328,6.0,8.0,83,0.00,,,0.00,Wunderground v.1.15,2013-03-07 16:20:00,
2013-03-07 11:26:00,34.6,30.3,30.28,NW,311,7.0,9.0,84,0.00,,,0.00,Wunderground v.1.15,2013-03-07 16:26:00,
2013-03-07 11:32:00,34.5,30.5,30.28,WNW,302,7.0,8.0,85,0.00,,,0.00,Wunderground v.1.15,2013-03-07 16:32:00,
2013-03-07 11:38:00,34.5,30.7,30.28,NW,324,5.0,8.0,86,0.00,,,0.00,Wunderground v.1.15,2013-03-07 16:38:00,
2013-03-07 11:44:00,34.5,30.7,30.28,WNW,288,4.0,8.0,86,0.00,,,0.00,Wunderground v.1.15,2013-03-07 16:44:00,
2013-03-07 11:50:00,34.3,30.8,30.28,NW,305,5.0,8.0,87,0.00,,,0.00,Wunderground v.1.15,2013-03-07 16:50:00,
2013-03-07 11:55:00,34.2,31.0,30.28,SSE,149,4.0,11.0,88,0.00,,,0.00,Wunderground v.1.15,2013-03-07 16:55:00,
2013-03-07 12:00:00,34.2,31.0,30.28,NW,321,5.0,5.0,88,0.00,,,0.00,Wunderground v.1.15,2013-03-07 17:00:00,
2013-03-07 12:06:00,34.2,31.0,30.28,NNW,327,5.0,8.0,88,0.00,,,0.00,Wunderground v.1.15,2013-03-07 17:06:00,
2013-03-07 12:14:00,34.2,31.3,30.29,NW,322,6.0,7.0,89,0.00,,,0.00,Wunderground v.1.15,2013-03-07 17:14:00,
2013-03-07 12:20:00,34.1,31.2,30.29,NNW,340,5.0,7.0,89,0.00,,,0.00,Wunderground v.1.15,2013-03-07 17:20:00,
2013-03-07 12:25:00,34.1,31.2,30.29,WNW,300,5.0,9.0,89,0.00,,,0.00,Wunderground v.1.15,2013-03-07 17:25:00,
2013-03-07 12:31:00,34.1,31.2,30.28,WNW,285,4.0,5.0,89,0.00,,,0.00,Wunderground v.1.15,2013-03-07 17:31:00,
2013-03-07 12:37:00,34.3,31.4,30.28,NNW,334,4.0,5.0,89,0.00,,,0.00,Wunderground v.1.15,2013-03-07 17:37:00,
2013-03-07 12:43:00,34.6,31.4,30.28,NW,308,4.0,6.0,88,0.00,,,0.00,Wunderground v.1.15,2013-03-07 17:43:00,
2013-03-07 12:48:00,34.7,31.5,30.28,NW,316,4.0,6.0,88,0.00,,,0.00,Wunderground v.1.15,2013-03-07 17:48:00,
2013-03-07 12:54:00,34.8,31.3,30.28,NW,315,5.0,9.0,87,0.00,,,0.00,Wunderground v.1.15,2013-03-07 17:54:00,
2013-03-07 13:00:00,34.8,31.3,30.28,WNW,296,5.0,5.0,87,0.00,,,0.00,Wunderground v.1.15,2013-03-07 18:00:00,
2013-03-07 13:07:00,35.3,31.5,30.28,NW,307,5.0,6.0,86,0.00,,,0.00,Wunderground v.1.15,2013-03-07 18:07:00,
2013-03-07 13:12:00,35.8,31.7,30.27,North,10,4.0,7.0,85,0.00,,,0.00,Wunderground v.1.15,2013-03-07 18:12:00,
2013-03-07 13:17:00,35.7,31.3,30.27,NW,320,5.0,9.0,84,0.00,,,0.00,Wunderground v.1.15,2013-03-07 18:17:00,
2013-03-07 13:22:00,36.2,31.5,30.27,WNW,293,5.0,6.0,83,0.00,,,0.00,Wunderground v.1.15,2013-03-07 18:22:00,
2013-03-07 13:27:00,36.7,31.7,30.27,WNW,290,4.0,7.0,82,0.00,,,0.00,Wunderground v.1.15,2013-03-07 18:27:00,
2013-03-07 13:33:00,36.6,31.6,30.27,NW,315,5.0,6.0,82,0.00,,,0.00,Wunderground v.1.15,2013-03-07 18:33:00,
2013-03-07 13:40:00,36.5,31.5,30.27,NNW,346,5.0,8.0,82,0.00,,,0.00,Wunderground v.1.15,2013-03-07 18:40:00,
2013-03-07 13:45:00,36.6,31.6,30.27,WNW,300,5.0,7.0,82,0.00,,,0.00,Wunderground v.1.15,2013-03-07 18:45:00,
2013-03-07 13:51:00,36.5,31.5,30.26,NW,311,4.0,6.0,82,0.00,,,0.00,Wunderground v.1.15,2013-03-07 18:51:00,
2013-03-07 13:56:00,36.4,31.4,30.27,NNW,335,5.0,7.0,82,0.00,,,0.00,Wunderground v.1.15,2013-03-07 18:56:00,
2013-03-07 14:02:00,36.4,31.4,30.27,NNW,340,5.0,5.0,82,0.00,,,0.00,Wunderground v.1.15,2013-03-07 19:02:00,
2013-03-07 14:10:00,36.2,31.2,30.27,WNW,291,5.0,8.0,82,0.00,,,0.00,Wunderground v.1.15,2013-03-07 19:10:00,
2013-03-07 14:15:00,35.9,30.9,30.27,NW,324,5.0,6.0,82,0.00,,,0.00,Wunderground v.1.15,2013-03-07 19:15:00,
2013-03-07 14:20:00,35.8,31.1,30.27,NW,307,5.0,10.0,83,0.00,,,0.00,Wunderground v.1.15,2013-03-07 19:20:00,
2013-03-07 14:26:00,35.7,31.0,30.27,NW,309,5.0,10.0,83,0.00,,,0.00,Wunderground v.1.15,2013-03-07 19:26:00,
2013-03-07 14:31:00,35.7,31.0,30.27,NW,316,5.0,8.0,83,0.00,,,0.00,Wunderground v.1.15,2013-03-07 19:31:00,
2013-03-07 14:37:00,35.5,30.5,30.27,WNW,296,5.0,10.0,82,0.00,,,0.00,Wunderground v.1.15,2013-03-07 19:37:00,
2013-03-07 14:43:00,35.4,30.8,30.27,NW,311,6.0,8.0,83,0.00,,,0.00,Wunderground v.1.15,2013-03-07 19:43:00,
2013-03-07 14:51:00,35.4,30.8,30.27,WNW,300,6.0,9.0,83,0.00,,,0.00,Wunderground v.1.15,2013-03-07 19:51:00,
2013-03-07 14:57:00,35.3,30.7,30.27,WNW,300,7.0,10.0,83,0.00,,,0.00,Wunderground v.1.15,2013-03-07 19:57:00,
2013-03-07 15:02:00,35.4,30.8,30.27,NW,316,6.0,6.0,83,0.00,,,0.00,Wunderground v.1.15,2013-03-07 20:02:00,
2013-03-07 15:10:00,35.1,30.5,30.27,North,1,5.0,7.0,83,0.00,,,0.00,Wunderground v.1.15,2013-03-07 20:10:00,
2013-03-07 15:15:00,35.0,30.7,30.28,WNW,301,6.0,8.0,84,0.00,,,0.00,Wunderground v.1.15,2013-03-07 20:15:00,
2013-03-07 15:20:00,34.9,30.6,30.28,NW,322,6.0,6.0,84,0.00,,,0.00,Wunderground v.1.15,2013-03-07 20:20:00,
2013-03-07 15:26:00,34.6,30.6,30.28,North,349,7.0,11.0,85,0.00,,,0.00,Wunderground v.1.15,2013-03-07 20:26:00,
2013-03-07 15:32:00,34.3,30.3,30.28,NW,323,7.0,10.0,85,0.00,,,0.00,Wunderground v.1.15,2013-03-07 20:32:00,
2013-03-07 15:37:00,34.1,30.4,30.28,NNW,343,7.0,10.0,86,0.00,,,0.00,Wunderground v.1.15,2013-03-07 20:37:00,
2013-03-07 15:43:00,34.1,30.1,30.28,NW,314,5.0,6.0,85,0.00,,,0.00,Wunderground v.1.15,2013-03-07 20:43:00,
2013-03-07 15:50:00,33.9,30.2,30.29,WNW,303,5.0,8.0,86,0.00,,,0.00,Wunderground v.1.15,2013-03-07 20:50:00,
2013-03-07 15:56:00,33.7,30.0,30.29,NW,315,6.0,9.0,86,0.00,,,0.00,Wunderground v.1.15,2013-03-07 20:56:00,
2013-03-07 16:02:00,33.6,29.9,30.29,NNW,330,6.0,6.0,86,0.00,,,0.00,Wunderground v.1.15,2013-03-07 21:02:00,
2013-03-07 16:08:00,33.7,30.0,30.29,NW,309,5.0,6.0,86,0.00,,,0.00,Wunderground v.1.15,2013-03-07 21:08:00,
2013-03-07 16:14:00,33.7,30.0,30.29,NNE,18,5.0,6.0,86,0.00,,,0.00,Wunderground v.1.15,2013-03-07 21:14:00,
2013-03-07 16:20:00,33.7,30.0,30.29,NW,308,5.0,7.0,86,0.00,,,0.00,Wunderground v.1.15,2013-03-07 21:20:00,
2013-03-07 16:26:00,33.9,30.2,30.29,NW,304,5.0,8.0,86,0.00,,,0.00,Wunderground v.1.15,2013-03-07 21:26:00,
2013-03-07 16:32:00,33.8,30.1,30.30,WNW,300,5.0,9.0,86,0.00,,,0.00,Wunderground v.1.15,2013-03-07 21:32:00,
2013-03-07 16:40:00,33.8,30.1,30.30,NNW,328,6.0,6.0,86,0.00,,,0.00,Wunderground v.1.15,2013-03-07 21:40:00,
2013-03-07 16:45:00,33.8,30.1,30.30,NW,309,5.0,8.0,86,0.00,,,0.00,Wunderground v.1.15,2013-03-07 21:45:00,
2013-03-07 16:50:00,33.7,30.0,30.30,NW,324,5.0,5.0,86,0.00,,,0.00,Wunderground v.1.15,2013-03-07 21:50:00,
2013-03-07 16:55:00,33.5,30.0,30.29,NW,308,5.0,6.0,87,0.00,,,0.00,Wunderground v.1.15,2013-03-07 21:55:00,
2013-03-07 17:00:00,33.6,30.1,30.30,NW,322,5.0,5.0,87,0.00,,,0.00,Wunderground v.1.15,2013-03-07 22:00:00,
2013-03-07 17:06:00,33.7,30.2,30.30,NW,321,4.0,5.0,87,0.00,,,0.00,Wunderground v.1.15,2013-03-07 22:06:00,
2013-03-07 17:12:00,33.7,30.2,30.30,NNW,345,4.0,5.0,87,0.00,,,0.00,Wunderground v.1.15,2013-03-07 22:12:00,
2013-03-07 17:19:00,33.7,30.2,30.31,North,8,4.0,7.0,87,0.00,,,0.00,Wunderground v.1.15,2013-03-07 22:19:00,
2013-03-07 17:25:00,33.6,29.9,30.31,North,11,4.0,7.0,86,0.00,,,0.00,Wunderground v.1.15,2013-03-07 22:25:00,
2013-03-07 17:30:00,33.7,30.0,30.31,NE,41,5.0,5.0,86,0.00,,,0.00,Wunderground v.1.15,2013-03-07 22:30:00,
2013-03-07 17:35:00,33.7,30.0,30.31,NNW,340,4.0,5.0,86,0.00,,,0.00,Wunderground v.1.15,2013-03-07 22:35:00,
2013-03-07 17:41:00,33.7,30.0,30.31,NNW,342,3.0,3.0,86,0.00,,,0.00,Wunderground v.1.15,2013-03-07 22:41:00,
2013-03-07 17:47:00,33.6,29.9,30.31,NW,314,3.0,3.0,86,0.00,,,0.00,Wunderground v.1.15,2013-03-07 22:47:00,
2013-03-07 17:55:00,33.7,30.0,30.31,NNW,345,2.0,5.0,86,0.00,,,0.00,Wunderground v.1.15,2013-03-07 22:55:00,
2013-03-07 18:00:00,33.6,29.9,30.31,NW,314,3.0,6.0,86,0.00,,,0.00,Wunderground v.1.15,2013-03-07 23:00:00,
2013-03-07 18:06:00,33.6,29.9,30.31,North,349,3.0,6.0,86,0.00,,,0.00,Wunderground v.1.15,2013-03-07 23:06:00,
2013-03-07 18:14:00,33.5,30.0,30.32,NNW,348,3.0,4.0,87,0.00,,,0.00,Wunderground v.1.15,2013-03-07 23:14:00,
2013-03-07 18:19:00,33.4,29.9,30.32,NNW,345,4.0,4.0,87,0.00,,,0.00,Wunderground v.1.15,2013-03-07 23:19:00,
2013-03-07 18:25:00,33.3,29.8,30.32,NNW,341,4.0,6.0,87,0.00,,,0.00,Wunderground v.1.15,2013-03-07 23:25:00,
2013-03-07 18:31:00,33.2,29.8,30.32,North,357,4.0,5.0,87,0.00,,,0.00,Wunderground v.1.15,2013-03-07 23:31:00,
2013-03-07 18:36:00,33.1,29.7,30.32,NNW,338,4.0,5.0,87,0.00,,,0.00,Wunderground v.1.15,2013-03-07 23:36:00,
2013-03-07 18:42:00,32.9,29.7,30.32,NW,311,4.0,5.0,88,0.00,,,0.00,Wunderground v.1.15,2013-03-07 23:42:00,
2013-03-07 18:48:00,32.8,29.6,30.32,NNW,343,3.0,5.0,88,0.00,,,0.00,Wunderground v.1.15,2013-03-07 23:48:00,
2013-03-07 18:54:00,32.8,29.6,30.32,NE,37,3.0,3.0,88,0.00,,,0.00,Wunderground v.1.15,2013-03-07 23:54:00,
2013-03-07 19:00:00,32.7,29.8,30.32,NW,316,2.0,2.0,89,0.00,,,0.00,Wunderground v.1.15,2013-03-08 00:00:00,
2013-03-07 19:06:00,32.7,29.8,30.33,NNE,27,3.0,4.0,89,0.00,,,0.00,Wunderground v.1.15,2013-03-08 00:06:00,
2013-03-07 19:12:00,32.7,29.8,30.33,North,349,3.0,3.0,89,0.00,,,0.00,Wunderground v.1.15,2013-03-08 00:12:00,
2013-03-07 19:17:00,32.7,29.8,30.33,NNW,347,3.0,3.0,89,0.00,,,0.00,Wunderground v.1.15,2013-03-08 00:17:00,
2013-03-07 19:23:00,32.5,29.6,30.33,NNW,331,3.0,5.0,89,0.00,,,0.00,Wunderground v.1.15,2013-03-08 00:23:00,
2013-03-07 19:29:00,32.4,29.5,30.33,NNW,343,3.0,7.0,89,0.00,,,0.00,Wunderground v.1.15,2013-03-08 00:29:00,
2013-03-07 19:35:00,32.4,29.5,30.33,NNW,341,4.0,5.0,89,0.00,,,0.00,Wunderground v.1.15,2013-03-08 00:35:00,
2013-03-07 19:42:00,32.4,29.2,30.33,NW,325,3.0,6.0,88,0.00,,,0.00,Wunderground v.1.15,2013-03-08 00:42:00,
2013-03-07 19:48:00,32.4,29.2,30.33,North,1,4.0,7.0,88,0.00,,,0.00,Wunderground v.1.15,2013-03-08 00:48:00,
2013-03-07 19:53:00,32.3,29.1,30.34,NW,326,3.0,5.0,88,0.00,,,0.00,Wunderground v.1.15,2013-03-08 00:53:00,
2013-03-07 20:00:00,32.4,29.2,30.34,NNW,331,3.0,3.0,88,0.00,,,0.00,Wunderground v.1.15,2013-03-08 01:00:00,
2013-03-07 20:05:00,32.3,29.1,30.34,NNW,346,3.0,5.0,88,0.00,,,0.00,Wunderground v.1.15,2013-03-08 01:05:00,
2013-03-07 20:11:00,32.3,28.9,30.34,NNE,25,4.0,5.0,87,0.00,,,0.00,Wunderground v.1.15,2013-03-08 01:11:00,
2013-03-07 20:17:00,32.2,28.8,30.34,North,6,4.0,6.0,87,0.00,,,0.00,Wunderground v.1.15,2013-03-08 01:17:00,
2013-03-07 20:22:00,32.2,29.0,30.34,WNW,300,4.0,4.0,88,0.00,,,0.00,Wunderground v.1.15,2013-03-08 01:22:00,
2013-03-07 20:28:00,32.1,28.9,30.34,NW,324,3.0,4.0,88,0.00,,,0.00,Wunderground v.1.15,2013-03-08 01:28:00,
2013-03-07 20:34:00,32.1,28.9,30.34,NW,323,3.0,3.0,88,0.00,,,0.00,Wunderground v.1.15,2013-03-08 01:34:00,
2013-03-07 20:40:00,32.0,28.8,30.35,North,359,3.0,5.0,88,0.00,,,0.00,Wunderground v.1.15,2013-03-08 01:40:00,
2013-03-07 20:46:00,31.9,29.0,30.35,NNE,18,3.0,4.0,89,0.00,,,0.00,Wunderground v.1.15,2013-03-08 01:46:00,
2013-03-07 20:52:00,31.8,28.9,30.35,NW,310,3.0,3.0,89,0.00,,,0.00,Wunderground v.1.15,2013-03-08 01:52:00,
2013-03-07 20:58:00,31.6,28.7,30.35,NE,36,4.0,10.0,89,0.00,,,0.00,Wunderground v.1.15,2013-03-08 01:58:00,
2013-03-07 21:04:00,31.6,28.7,30.35,NNW,344,4.0,6.0,89,0.00,,,0.00,Wunderground v.1.15,2013-03-08 02:04:00,
2013-03-07 21:09:00,31.4,28.5,30.35,NNW,338,5.0,8.0,89,0.00,,,0.00,Wunderground v.1.15,2013-03-08 02:09:00,
2013-03-07 21:15:00,31.3,28.2,30.35,NNW,330,5.0,7.0,88,0.00,,,0.00,Wunderground v.1.15,2013-03-08 02:15:00,
2013-03-07 21:20:00,31.2,27.8,30.35,NNW,348,6.0,6.0,87,0.00,,,0.00,Wunderground v.1.15,2013-03-08 02:20:00,
2013-03-07 21:27:00,31.0,27.6,30.35,NNW,344,5.0,6.0,87,0.00,,,0.00,Wunderground v.1.15,2013-03-08 02:27:00,
2013-03-07 21:32:00,30.9,27.5,30.35,NNE,13,4.0,5.0,87,0.00,,,0.00,Wunderground v.1.15,2013-03-08 02:32:00,
2013-03-07 21:38:00,30.8,27.4,30.35,NNE,22,4.0,5.0,87,0.00,,,0.00,Wunderground v.1.15,2013-03-08 02:38:00,
2013-03-07 21:44:00,30.7,27.3,30.35,NE,43,4.0,5.0,87,0.00,,,0.00,Wunderground v.1.15,2013-03-08 02:44:00,
2013-03-07 21:49:00,30.5,26.8,30.35,NNW,338,4.0,5.0,86,0.00,,,0.00,Wunderground v.1.15,2013-03-08 02:49:00,
2013-03-07 21:56:00,30.3,26.6,30.36,NNW,338,4.0,5.0,86,0.00,,,0.00,Wunderground v.1.15,2013-03-08 02:56:00,
2013-03-07 22:01:00,30.1,26.1,30.36,NW,310,4.0,8.0,85,0.00,,,0.00,Wunderground v.1.15,2013-03-08 03:01:00,
2013-03-07 22:06:00,30.0,25.8,30.36,NE,49,5.0,10.0,84,0.00,,,0.00,Wunderground v.1.15,2013-03-08 03:06:00,
2013-03-07 22:12:00,30.0,25.8,30.36,North,8,6.0,8.0,84,0.00,,,0.00,Wunderground v.1.15,2013-03-08 03:12:00,
2013-03-07 22:18:00,29.9,25.7,30.36,NW,324,5.0,9.0,84,0.00,,,0.00,Wunderground v.1.15,2013-03-08 03:18:00,
2013-03-07 22:24:00,29.7,25.5,30.36,North,350,4.0,6.0,84,0.00,,,0.00,Wunderground v.1.15,2013-03-08 03:24:00,
2013-03-07 22:30:00,29.6,25.4,30.36,NNW,338,5.0,9.0,84,0.00,,,0.00,Wunderground v.1.15,2013-03-08 03:30:00,
2013-03-07 22:37:00,29.4,25.2,30.36,NNW,338,5.0,9.0,84,0.00,,,0.00,Wunderground v.1.15,2013-03-08 03:37:00,
2013-03-07 22:42:00,29.3,25.4,30.36,North,1,4.0,4.0,85,0.00,,,0.00,Wunderground v.1.15,2013-03-08 03:42:00,
2013-03-07 22:47:00,29.3,25.4,30.36,NNW,341,4.0,6.0,85,0.00,,,0.00,Wunderground v.1.15,2013-03-08 03:47:00,
2013-03-07 22:53:00,29.2,25.3,30.36,NNE,24,4.0,5.0,85,0.00,,,0.00,Wunderground v.1.15,2013-03-08 03:53:00,
2013-03-07 22:58:00,29.2,25.3,30.36,NW,310,4.0,5.0,85,0.00,,,0.00,Wunderground v.1.15,2013-03-08 03:58:00,
2013-03-07 23:03:00,29.2,25.3,30.36,NNW,338,4.0,5.0,85,0.00,,,0.00,Wunderground v.1.15,2013-03-08 04:03:00,
2013-03-07 23:10:00,29.2,25.5,30.36,NW,325,4.0,4.0,86,0.00,,,0.00,Wunderground v.1.15,2013-03-08 04:10:00,
2013-03-07 23:16:00,29.2,25.3,30.36,NNE,25,4.0,5.0,85,0.00,,,0.00,Wunderground v.1.15,2013-03-08 04:16:00,
2013-03-07 23:22:00,29.1,25.2,30.36,WNW,301,4.0,4.0,85,0.00,,,0.00,Wunderground v.1.15,2013-03-08 04:22:00,
2013-03-07 23:27:00,29.0,25.3,30.36,WNW,300,4.0,4.0,86,0.00,,,0.00,Wunderground v.1.15,2013-03-08 04:27:00,
2013-03-07 23:32:00,28.8,25.1,30.36,NNW,339,4.0,5.0,86,0.00,,,0.00,Wunderground v.1.15,2013-03-08 04:32:00,
2013-03-07 23:38:00,28.7,25.0,30.36,NNE,29,3.0,5.0,86,0.00,,,0.00,Wunderground v.1.15,2013-03-08 04:38:00,
2013-03-07 23:44:00,28.6,24.9,30.36,WSW,246,3.0,5.0,86,0.00,,,0.00,Wunderground v.1.15,2013-03-08 04:44:00,
2013-03-07 23:50:00,28.5,25.1,30.36,NNW,329,4.0,6.0,87,0.00,,,0.00,Wunderground v.1.15,2013-03-08 04:50:00,
2013-03-07 23:56:00,28.3,24.9,30.36,North,8,4.0,5.0,87,0.00,,,0.00,Wunderground v.1.15,2013-03-08 04:56:00,